Regional Weather Roundup
Issued by NWS Portland, ME

Home | Current Version | Previous Version | Text Only | Print | Product List | Glossary On
Versions: 1 2 3 4 5 6 7 8 9 10 11 12 13 14 15 16 17 18 19 20 21 22 23 24 25 26 27 28 29 30 31 32 33 34 35 36 37 38 39 40 41 42 43 44 45 46 47 48 49 50
633
ASUS41 KGYX 101910
RWRGYX
WEATHER ROUNDUP FOR MAINE AND NEW HAMPSHIRE
NATIONAL WEATHER SERVICE GRAY ME
200 PM EST SAT DEC 10 2016

MEZ002-005-006-010-012-015-018-020-021-024-026-027-029-102000-
MAINE

CITY           SKY/WX    TMP DP  RH WIND       PRES   REMARKS
PORTLAND       SUNNY     26   2  35 NW10      30.23S WCI  16
SANFORD        SUNNY     24   6  46 W13       30.23R WCI  12
BAR HARBOR     SUNNY     21   3  45 W9        30.17R
WISCASSET      SUNNY     23   0  36 NW9G16    30.23R
ROCKLAND       SUNNY     23   2  40 W8G17     30.19R
FRYEBURG       MOSUNNY   22   1  40 VRB7      30.22S
LEWISTONAUBURN MOSUNNY   21   4  47 NW13      30.22S WCI   9
AUGUSTA        MOSUNNY   19   1  45 NW14G26   30.20R WCI   6
WATERVILLE     SUNNY     20   4  50 W8        30.17R
BANGOR         MOSUNNY   20   1  43 NW16G24   30.17R WCI   6
GREENVILLE       N/A     13   2  61 NW17G25   30.05R WCI  -4
MILLINOCKET    SUNNY     15  -2  46 NW17G25   30.14R WCI  -1
HOULTON        MOSUNNY   12   2  64 NW18G25   30.09R WCI  -6
PRESQUE ISLE   CLOUDY    12   1  61 NW12      30.11R WCI  -2
FRENCHVILLE    SUNNY      7  -3  64 NW13      30.04R WCI  -9
CARIBOU        CLOUDY     9  -2  61 NW14G23   30.08R WCI  -7
$$

NHZ002-005-008-009-011-012-014-102000-
NEW HAMPSHIRE

CITY           SKY/WX    TMP DP  RH WIND       PRES   REMARKS
PORTSMOUTH     MOSUNNY   27   2  33 W12       30.22F WCI  17
ROCHESTER      MOSUNNY   24   2  38 NW15G25   30.22R WCI  11
NASHUA         MOSUNNY   27   6  41 W12G18    30.25F WCI  17
MANCHESTER     MOSUNNY   27   3  35 NW15G22   30.24S WCI  15
CONCORD        SUNNY     26   4  38 NW13G23   30.25S WCI  15
LACONIA        SUNNY     22   4  46 NW12G17   30.24R WCI  10
PLYMOUTH         N/A     22   4  46 NW9G22    30.25R
BERLIN         LGT SNOW  17   7  64 N12       30.18R WCI   4
WHITEFIELD     CLOUDY    18   7  62 W7        30.21S
JAFFREY        MOSUNNY   24   2  38 NW8       30.21S
KEENE          MOSUNNY   25   6  44 N10       30.26S WCI  15
LEBANON        CLOUDY    22   7  52 N8        30.26S
MT WASHINGTON  FOG       -8  -8 100 NW47G53     N/A  VSB 3/16WCI -41
$$

VTZ005-007-008-102000-
VERMONT

CITY           SKY/WX    TMP DP  RH WIND       PRES   REMARKS
ST JOHNSBURY     N/A     20   6  55 MISG      30.24S
MONTPELIER     CLOUDY    17   6  62 VRB7      30.26S
BURLINGTON     PTSUNNY   24   4  42 W6        30.30S
$$

MAZ007-012-024-CTZ003-RIZ002-NYZ038-NYZ072-102000-
SOUTHERN NEW ENGLAND AND NY

CITY           SKY/WX    TMP DP  RH WIND       PRES   REMARKS
BOSTON         MOSUNNY   29   4  34 W13G21    30.26S WCI  19
WORCESTER      SUNNY     24   2  38 W10G18    30.21S WCI  14
NANTUCKET      SUNNY     30   9  41 W16       30.25S WCI  19
PROVIDENCE     PTSUNNY   30   5  34 NW12      30.28S
HARTFORD       PTSUNNY   30   8  39 NW13      30.30S WCI  20
ALBANY         MOSUNNY   28  10  46 NW12      30.32F WCI  18
NEW YORK CITY  CLOUDY    36  18  48 NW16      30.34S
$$

ANZ081-ANZ082-ANZ150-NHZ014-MEZ023>029-102000-
COASTAL MARINE OBSERVATIONS

STATION/POSITION TIME  TEMP    WIND        PRES    WAVE
                       AIR SEA DIR/SP/G            HT/PER
                 (UTC) (F)     (DEG/KT/KT) (MB)    (FT/S)
MOUNT DESERT ROC 1900   21                 1021.7R
MATINICUS ROCK   1800   24     300/ 15/ 20 1021.0F
ISLE OF SHOALS   1800   26     300/ 13/ 18 1023.7F
JEFFREYS LEDGE   1838      50                N/A     3/ 4
CASHES LEDGE BUO 1850   27 49  290/ 21/ 27 1022.1F   5/ 5
GEORGES BANK BUO 1850   37 49              1020.1R   9/ 8
$$

.............KEY..............
   WCI - WIND CHILL
   TC  - TEMPERATURE IN CELSIUS
   VSB - VISIBILITY IN MILES
   HX  - HEAT INDEX
   FAIR- INDICATES FEW OR NO CLOUDS BELOW 12,000 FT, WITH NO
         SIGNIFICANT WEATHER AND/OR OBSTRUCTIONS TO VISIBILITY.






USA.gov is the U.S. government's official web portal to all federal, state and local government web resources and services.